Regional Weather Roundup
Issued by NWS New Orleans/Baton Rouge, LA

Home | Current Version | Previous Version | Text Only | Print | Product List | Glossary On
Versions: 1 2 3 4 5 6 7 8 9 10 11 12 13 14 15 16 17 18 19 20 21 22 23 24 25 26 27 28 29 30 31 32 33 34 35 36 37 38 39 40 41 42 43 44 45 46 47 48 49 50
000
ASUS44 KLIX 230410
RWRLIX
NEW ORLEANS REGIONAL WEATHER ROUNDUP
NATIONAL WEATHER SERVICE NEW ORLEANS LA
1100 PM CDT MON SEP 22 2014

NOTE: "FAIR" INDICATES FEW OR NO CLOUDS BELOW 12,000 FEET WITH NO
      SIGNIFICANT WEATHER AND/OR OBSTRUCTIONS TO VISIBILITY.
      SKY/WX - SKY CONDITION AND SIGNIFICANT WEATHER.
      TMP - AIR TEMPERATURE.     DP    - DEWPOINT TEMPERATURE.
      RH  - RELATIVE HUMIDITY.   PRES  - PRESSURE.
      HI  - HEAT INDEX.          WCI   - WIND CHILL INDEX.

*  THESE STATIONS ARE NOT NWS OR FAA STATIONS AND ARE NOT UNDER
   NWS QUALITY CONTROL.

LAZ038-040-048-061>063-065>067-069-230500-
SOUTHEAST LOUISIANA

CITY           SKY/WX    TMP DP  RH WIND       PRES   REMARKS
N.O. AUDUBON     N/A     78  58  50 MISG        N/A
N.O. INTL ARPT CLEAR     79  56  45 NE20G28   30.05R
N.O. LAKEFRONT CLEAR     79  61  53 NE28      30.05R
N.O. DOWNTOWN*   N/A     79  55  44 N8G17     30.05R
SLIDELL        CLEAR     67  57  70 N6        30.06R
BATON ROUGE    CLEAR     67  57  70 VRB3      30.09R
BOOTHVILLE     CLEAR     83  66  56 NE13G22   30.02S
BELLE CHASSE   PTCLDY    75  56  51 NE9       30.04R
BOGALUSA*        N/A     63  57  80 N3        30.10R
GALLIANO*      NOT AVBL
NEW ROADS*       N/A     67  57  72 N8        30.09R
GONZALES*        N/A     70  60  70 N5        30.06S
HAMMOND*       CLEAR     66  57  72 N3        30.09S
HOUMA*         CLEAR     71  52  50 N5        30.04S
PORT FOURCHON* CLEAR     81  66  61 N15       30.06R

$$

MSZ070-080>082-230500-
SOUTHERN MISSISSIPPI

CITY           SKY/WX    TMP DP  RH WIND       PRES   REMARKS
MCCOMB         CLEAR     68  54  60 N7        30.10S
GULFPORT       CLEAR     71  54  54 N9        30.05R
BILOXI         CLEAR     71  56  59 N7        30.05S
PASCAGOULA     CLEAR     64  58  80 N5        30.05R

$$

COASTAL OBSERVATIONS
LAKE AND NEARSHORE STATIONS

STATION/POSITION TIME  TEMP    WIND        PRES    WAVE
                       AIR SEA DIR/SP/G            HT/PER
                 (UTC) (F)     (DEG/KT/KT) (MB)    (FT/S)
PASCAGOULA       0400   74      30/  9/ 11 1016.9
WAVELAND YACHT   0400   75      20/ 14/ 16 1017.0
GRAND ISLE       0400   81 83   40/ 13/ 17 1017.2
SOUTHWEST PASS   0400   81 89   40/ 10/ 12 1016.4
NEW CANAL        0400   80 81   40/ 24/ 27 1017.6
SHELL BEACH      0400   80 79   30/ 21/ 25 1017.2

OFFSHORE STATIONS

STATION/POSITION TIME  TEMP    WIND        PRES    WAVE
                       AIR SEA DIR/SP/G            HT/PER
                 (UTC) (F)     (DEG/KT/KT) (MB)    (FT/S)
64 S DAUPHIN ISL 0343   81 84   50/ 21/ 25 1016.1    2/ 3

$$



USA.gov is the U.S. government's official web portal to all federal, state and local government web resources and services.